Location: *
(50.6089°N, 2.2719°E)
Time: 08:36:39
(UTC+00:00)

Cosmos 1076 Rocket - Pass Details

Date: 18 October 2019
Orbit: 589 x 613 km, 82.5° (Epoch: 13 November)

Event Time Altitude Azimuth Distance (km) Brightness Sun altitude
Rises 18:17:44 0° 354° (N) 2,893 7.1 -14.1°
Reaches altitude 10° 18:20:05 10° 2° (N) 1,982 6.2 -14.5°
Maximum altitude 18:24:15 41° 73° (ENE) 899 3.9 -15.1°
Enters shadow 18:27:01 19° 135° (SE) 1,481 5.1 -15.6°
